{"data":{"norad_id":68544,"intl_designator":"2026-070C","name":"STARLINK-37263","alt_names":[],"object_type":"PAYLOAD","status":"ACTIVE","operator":null,"country":"US","launch_date":"2026-04-02","launch_site_code":"AFETR","launch_vehicle":null,"mission":null,"orbit_class":"UNKNOWN","rcs_meters":null,"size_class":null,"mass_kg":null,"dimensions":null,"purposes":["comms"],"wikipedia_slug":null,"has_3d_model":false,"image_url":null,"decayed_at":null,"tle_current":{"epoch":"2026-09-20T04:04:21.594432Z","epoch_age_seconds":73495,"freshness":"FRESH","line1":"1 68544U 26070C   26263.16969438  .00014923  00000+0  45189-3 0  9995","line2":"2 68544  53.1586 175.4858 0000921  62.9832 297.1265 15.34402376 26383","mean_motion":15.34402376,"eccentricity":9.21e-5,"inclination_deg":53.1586,"raan_deg":175.4858,"arg_perigee_deg":62.9832,"mean_anomaly_deg":297.1265,"bstar":0.00045189,"rev_number":2638,"period_min":93.847612759432,"perigee_km":462.06613750778,"apogee_km":463.32621897921,"semimajor_km":6840.8331782435,"source":"CELESTRAK","updated_at":"2026-09-20T09:00:43.910109Z"}}}